CAPE
1577 1692 1748 1674 938 899 1159 1239 1845 1817 1535 1521 1185 993 518 97 0 0 24 63 191 249 110 29 57 71 107 244 280 114 160 39 16
1778 1631 1573 1480 1358 1368 1353 1746 1744 1716 1531 1487 1299 938 208 39 0 0 29 296 406 123 81 14 17 16 64 217 208 149 37 8 12
1855 1757 1320 1152 1255 1346 1660 1598 1512 1581 1468 1241 1076 295 79 89 61 0 0 463 640 548 403 68 15 16 10 225 214 105 16 6 13
1909 1558 1080 1278 1145 974 940 1038 1140 1388 1268 1059 394 63 94 35 30 20 0 210 342 676 405 75 15 15 9 184 155 84 11 14 13
1300 1056 881 1114 1193 809 643 893 977 1002 952 660 126 96 82 37 0 8 25 408 394 562 228 81 12 20 33 126 141 40 20 18 20
244 334 478 591 580 674 675 794 596 88 103 199 90 108 77 42 20 0 289 701 651 600 362 188 141 18 23 34 166 147 73 37 43
0 0 97 357 385 441 526 442 14 0 0 0 56 126 116 94 38 15 410 693 591 478 343 419 413 292 193 347 393 126 103 33 35
0 1 0 4 26 255 72 0 0 0 0 1 0 23 94 98 54 81 311 617 625 463 275 538 463 206 210 192 103 208 202 34 25
1 0 1 0 1 2 0 0 0 0 1 1 0 1 8 11 34 117 223 390 695 309 293 300 299 246 219 156 143 187 184 93 25
1 2 1 1 0 0 0 0 0 0 1 1 1 2 0 1 1 9 71 143 474 656 398 369 354 298 214 159 180 208 142 98 131
1 0 1 0 0 0 0 0 0 1 0 2 1 0 1 3 1 1 10 183 366 761 567 445 480 503 458 340 298 289 194 199 185
0 0 0 0 0 0 0 0 0 0 1 0 1 1 3 9 0 2 1 106 162 515 756 698 504 497 500 387 312 194 178 158 118
0 0 0 0 0 0 0 0 0 0 0 0 1 0 1 2 3 1 1 0 72 279 485 454 387 360 344 299 231 137 54 38 34
0 0 0 0 0 0 0 0 0 0 0 0 0 1 1 0 1 1 1 1 1 22 4 93 111 168 212 166 112 48 34 33 23
0 0 0 0 0 0 0 0 0 1 0 0 0 0 0 1 0 2 2 3 0 0 0 0 0 32 99 100 71 53 42 29 26
3 0 0 0 0 0 0 0 0 0 0 0 0 0 0 0 1 2 4 1 3 0 0 0 0 0 18 46 38 33 32 28 24
2 3 0 0 0 0 0 0 0 0 0 0 0 0 0 0 0 1 1 0 0 0 0 0 0 0 0 0 21 19 18 19 21
1 0 1 0 0 0 0 0 0 0 0 0 0 0 0 0 0 0 1 0 0 0 0 0 0 0 0 0 6 10 18 15 19
0 0 0 0 0 0 0 0 0 0 0 0 0 0 0 0 0 0 0 0 0 0 1 0 0 0 0 0 0 6 15 20 31
1 1 0 0 0 0 1 0 1 0 0 0 0 0 0 0 0 0 0 0 0 0 1 0 0 0 0 0 0 2 20 18 23
CIN
-0 -0 -1 -2 -12 -7 -14 -8 -0 -0 -0 -0 -0 -0 -0 -62 -0 -0 -66 -54 -11 -10 -69 -76 -107 -64 -38 -3 -10 -51 -22 -0 -0
-0 -0 -2 -5 -5 -6 -8 -0 -0 -0 -0 -0 -0 -0 -23 -87 -0 -0 -73 -11 -5 -29 -53 -0 -0 -0 -100 -4 -10 -33 -0 -0 -0
-0 -0 -5 -9 -9 -12 -0 -1 -0 -0 -0 -0 -0 -22 -45 -38 -74 -0 -2 -4 -0 -0 -13 -51 -0 -0 -0 -6 -13 -62 -0 -0 -0
-0 -5 -13 -4 -5 -14 -21 -10 -4 -1 -0 -1 -19 -75 -44 -53 -53 -81 -0 -14 -2 -0 -4 -47 -0 -0 -0 -25 -38 -57 -0 -0 -0
-7 -12 -19 -7 -5 -12 -21 -9 -3 -1 -2 -6 -48 -79 -52 -52 -0 -55 -100 -4 -0 -0 -14 -39 -0 -0 -0 -57 -43 -29 -0 -0 -0
-73 -56 -36 -21 -3 -5 -5 -3 -5 -41 -54 -24 -66 -76 -52 -50 -79 -0 -29 -2 -0 -0 -0 -6 -28 -0 -0 -3 -20 -25 -8 -0 -0
-0 -15 -91 -28 -15 -1 -0 -0 -54 -0 -0 -0 -93 -69 -58 -44 -84 -34 -11 -3 -0 -0 -1 -0 -0 -0 -5 -0 -0 -0 -3 -0 -0
-0 -0 -0 -9 -4 -0 -18 -0 -0 -0 -0 -0 -0 -203 -72 -59 -112 -65 -23 -2 -0 -0 -0 -0 -0 -1 -1 -0 -0 -0 -0 -0 -2
-24 -0 -0 -0 -0 -0 -0 -0 -0 -0 -0 -0 -0 -0 -215 -180 -155 -64 -15 -7 -0 -0 -5 -0 -0 -0 -0 -0 -0 -0 -2 -1 -0
-0 -67 -0 -0 -0 -0 -0 -0 -0 -0 -0 -0 -0 -0 -0 -0 -0 -34 -47 -22 -1 -0 -0 -0 -0 -0 -0 -0 -0 -0 -0 -0 -0
-66 -0 -0 -0 -0 -0 -0 -0 -0 -0 -0 -0 -0 -0 -0 -0 -0 -25 -51 -28 -3 -0 -0 -0 -0 -0 -0 -0 -0 -0 -0 -0 -0
-0 -0 -0 -0 -0 -0 -0 -0 -0 -0 -0 -0 -0 -0 -0 -0 -0 -0 -0 -7 -11 -0 -0 -0 -0 -0 -0 -1 -0 -0 -0 -0 -0
-0 -0 -0 -0 -0 -0 -0 -0 -0 -0 -0 -0 -0 -0 -0 -0 -0 -0 -0 -0 -4 -3 -0 -0 -0 -2 -0 -0 -0 -0 -1 -1 -2
-0 -0 -0 -0 -0 -0 -0 -0 -0 -0 -0 -0 -0 -0 -0 -0 -0 -0 -0 -0 -0 -61 -13 -1 -1 -0 -0 -0 -0 -10 -0 -0 -3
-0 -0 -0 -0 -0 -0 -0 -0 -0 -0 -0 -0 -0 -0 -0 -0 -0 -0 -0 -0 -0 -0 -0 -0 -4 -15 -1 -0 -7 -36 -86 -0 -0
-0 -0 -0 -0 -0 -0 -0 -0 -0 -0 -0 -0 -0 -0 -0 -0 -0 -0 -0 -0 -0 -0 -0 -0 -0 -0 -2 -0 -0 -0 -0 -0 -0
-0 -0 -0 -0 -0 -0 -0 -0 -0 -0 -0 -0 -0 -0 -0 -0 -0 -0 -0 -0 -0 -0 -0 -0 -0 -0 -0 -0 -0 -0 -0 -0 -0
-0 -0 -0 -0 -0 -0 -0 -0 -0 -0 -0 -0 -0 -0 -0 -0 -0 -0 -0 -0 -0 -0 -0 -0 -0 -0 -0 -0 -6 -3 -0 -0 -0
-0 -0 -0 -0 -0 -0 -0 -0 -0 -0 -0 -0 -0 -0 -0 -0 -0 -0 -0 -0 -0 -0 -0 -0 -0 -0 -0 -0 -0 -14 -2 -0 -0
-0 -0 -0 -0 -0 -0 -0 -0 -0 -0 -0 -0 -0 -0 -0 -0 -0 -0 -0 -0 -0 -0 -0 -0 -0 -0 -0 -0 -0 -18 -1 -0 -0
Wind_Speed
14 13 14 16 19 20 19 20 19 19 20 21 22 21 19 14 8 7 8 6 18 20 20 19 19 16 18 19 21 22 21 22 21
15 13 13 14 17 17 18 19 20 20 20 21 21 19 14 10 8 5 6 9 21 21 21 20 19 18 16 17 22 22 23 22 21
15 14 14 13 17 21 21 20 21 22 21 21 19 16 14 8 7 6 6 13 19 20 23 20 20 19 17 18 21 22 22 21 20
14 14 14 13 15 19 21 21 21 21 21 19 17 15 12 8 6 6 6 13 18 19 21 22 21 19 19 18 20 21 21 20 20
13 12 11 13 15 17 20 20 20 20 19 17 14 16 13 7 6 4 5 15 19 22 22 21 21 19 19 19 21 20 20 21 20
1 4 9 11 12 14 18 19 19 16 13 12 14 17 5 8 5 3 14 19 21 23 21 20 20 21 20 19 19 20 20 22 20
4 5 4 17 19 18 19 19 18 12 5 4 11 5 7 7 6 5 15 20 23 22 22 20 20 21 20 19 21 21 21 21 20
3 2 3 4 2 10 11 10 7 7 5 4 4 5 5 5 4 7 16 20 24 23 23 21 20 21 20 22 22 20 20 20 19
4 2 4 5 6 4 11 7 10 9 7 4 7 6 3 3 3 8 16 19 23 25 25 24 23 22 22 22 21 19 19 18 17
7 5 4 5 5 8 11 7 9 7 5 6 7 6 6 2 2 4 11 19 21 23 25 25 24 23 22 22 19 20 20 18 19
7 7 6 5 7 7 10 10 9 6 7 5 5 6 6 4 2 2 5 15 21 23 25 24 24 25 26 24 23 24 22 23 23
7 7 5 4 4 8 8 8 8 8 7 7 6 5 5 3 6 3 3 9 15 20 24 25 25 27 29 27 26 26 24 23 22
7 6 6 5 6 6 8 8 7 8 6 6 5 7 3 7 7 6 5 4 7 16 24 25 26 27 27 27 26 24 23 22 21
10 6 6 7 6 6 7 6 7 8 7 7 7 7 6 7 6 9 8 8 5 5 14 18 20 22 24 25 24 23 22 21 20
8 8 9 8 7 7 7 9 6 6 10 9 9 6 7 6 7 8 5 6 7 4 10 9 9 16 19 22 22 22 21 20 18
5 7 11 9 9 9 11 10 13 6 8 7 6 7 8 9 8 7 5 6 6 7 5 7 7 9 16 17 19 20 20 20 18
7 5 5 10 9 10 12 14 8 3 7 4 3 3 3 4 7 7 6 7 5 6 6 7 6 8 7 9 16 18 19 19 19
7 9 6 5 3 11 12 12 10 10 5 3 5 4 3 2 4 6 6 7 6 5 7 4 7 7 7 11 12 17 19 19 19
5 5 9 6 6 5 7 9 5 12 9 3 2 4 6 5 3 2 4 5 5 6 4 4 6 4 7 5 8 12 18 22 21
8 6 3 6 7 5 8 7 4 2 6 6 4 3 3 4 5 4 1 2 3 3 4 3 2 6 5 4 6 12 16 21 21
Wind_Direction
197 191 181 175 182 189 169 157 152 148 149 144 142 139 134 128 128 130 145 141 132 120 116 122 116 114 108 100 111 110 102 100 99
191 201 203 188 170 171 165 162 155 152 151 148 146 143 135 136 136 132 127 125 131 133 134 128 124 121 118 111 111 109 104 102 101
193 195 206 200 184 167 168 167 158 154 154 151 147 139 138 133 133 127 121 142 139 142 134 129 127 129 128 118 116 108 107 107 106
199 202 200 202 194 182 171 169 158 157 155 150 142 139 134 136 139 133 143 152 150 140 136 131 132 134 134 122 119 113 111 112 111
217 204 194 189 184 184 177 162 156 155 155 150 139 141 134 140 137 133 151 156 151 143 135 134 132 134 133 128 119 118 119 116 114
158 175 183 174 197 192 176 159 142 111 112 147 148 142 151 149 146 154 161 159 149 145 138 137 135 136 133 132 126 128 123 117 117
106 96 130 187 181 187 176 146 128 113 106 98 135 145 156 157 154 162 165 162 155 149 140 145 139 140 142 136 137 130 126 121 118
80 91 65 104 203 182 149 94 80 75 90 93 84 101 151 162 149 173 170 168 160 154 149 146 145 145 140 132 131 132 125 122 118
121 104 95 101 101 94 107 89 78 77 60 91 73 69 51 146 152 180 170 171 163 160 157 153 153 152 148 141 137 132 127 126 123
130 117 112 117 123 117 96 96 96 75 86 50 73 53 25 14 192 163 179 177 168 165 161 159 158 155 150 139 141 142 130 127 122
140 125 113 117 138 126 130 122 113 105 80 59 60 58 39 344 64 113 173 172 165 163 161 159 154 152 148 133 125 134 128 121 116
130 126 114 123 108 114 102 94 108 113 111 74 57 44 56 14 42 53 59 160 154 154 153 147 143 139 136 132 126 124 119 114 111
118 128 133 118 118 118 119 128 118 101 89 90 56 43 21 35 32 44 47 57 158 162 154 147 144 137 133 127 123 119 117 117 116
137 129 133 133 128 127 137 126 119 116 102 91 59 37 20 29 24 41 32 36 40 133 119 131 133 132 131 129 127 124 123 123 123
143 140 142 146 133 127 133 118 97 118 112 93 72 47 38 22 34 20 18 44 44 82 118 102 108 118 124 131 133 130 129 124 122
145 158 151 151 153 153 141 119 121 106 122 109 82 58 52 38 26 15 338 39 32 54 71 111 118 111 115 128 132 131 129 127 125
49 80 160 160 149 151 152 147 142 110 194 115 105 113 38 26 21 18 357 28 34 43 53 87 106 110 114 127 137 137 139 137 137
75 64 52 47 173 165 161 161 152 155 184 215 126 135 158 137 11 10 9 7 35 7 53 55 83 112 114 143 153 149 150 146 144
39 70 90 69 63 343 172 168 183 167 168 152 60 50 133 153 131 356 3 8 29 27 333 68 73 88 93 120 130 148 149 149 146
22 54 68 118 88 61 323 83 41 299 183 153 150 102 56 89 137 134 154 18 14 17 358 45 57 79 102 112 147 144 158 155 151